Location: Arezzo
(43.4170°N, 11.8830°E)
Time: 15:46:49
(UTC+01:00)

ISS - Visible Passes

Search period start: 20 January 2021 00:00
Search period end: 30 January 2021 00:00
Orbit: 418 x 419 km, 51.6° (Epoch: 20 January)

Date Brightness Start Highest point End Pass type
(mag) Time Alt. Az. Time Alt. Az. Time Alt. Az.
20 Jan -3.9 18:40:55 10° SW 18:44:16 78° SE 18:45:00 51° ENE visible
21 Jan -3.2 17:53:21 10° SW 17:56:35 46° SE 17:59:23 13° ENE visible
21 Jan -1.7 19:30:23 10° W 19:32:21 26° WNW 19:32:21 26° WNW visible
22 Jan -3.0 18:42:23 10° W 18:45:37 44° NNW 18:46:40 32° NNE visible
23 Jan -3.5 17:54:28 10° WSW 17:57:48 67° NNW 18:00:56 12° NE visible
23 Jan -1.3 19:32:19 10° WNW 19:33:53 19° NW 19:33:53 19° NW visible
24 Jan -2.2 18:44:12 10° WNW 18:47:06 26° NNW 18:48:06 22° NNE visible
25 Jan -2.5 17:56:05 10° W 17:59:11 33° NNW 18:02:17 10° NE visible
25 Jan -1.1 19:34:07 10° NW 19:35:14 15° NNW 19:35:14 15° NNW visible
26 Jan -1.9 18:46:03 10° WNW 18:48:40 20° N 18:49:24 19° NNE visible
27 Jan -2.0 17:57:56 10° WNW 18:00:40 22° N 18:03:25 10° NE visible
27 Jan -1.1 19:35:33 10° NW 19:36:30 15° NNW 19:36:30 15° NNW visible
28 Jan -2.0 18:47:39 10° NW 18:50:14 20° N 18:50:40 20° NNE visible
29 Jan -1.9 17:59:39 10° NW 18:02:12 20° N 18:04:45 10° NE visible
29 Jan -1.3 19:36:40 10° NW 19:37:47 18° NNW 19:37:47 18° NNW visible
